This is the latest recevied weather packets stored in our database for station/object KB9ZGZ. If no packets are shown the sender has not sent any weather packets the latest 10 day(s).
| Time | Temp. | Humidity | Pressure | Rain* | Wind** | Luminosity | Snow |
|---|---|---|---|---|---|---|---|
| 1777987867 | 9.44° C | 81% | 1005 hPa | 0 mm | - | - | - |
| 1777986958 | 10° C | 77% | 1005.4 hPa | 0 mm | - | - | - |
| 1777986055 | 10.56° C | 75% | 1005.7 hPa | 0 mm | - | - | - |
| 1777985149 | 10.56° C | 72% | 1005 hPa | 0 mm | - | - | - |
| 1777984246 | 11.11° C | 70% | 1005.4 hPa | 0 mm | - | - | - |
| 1777983345 | 11.11° C | 70% | 1004.9 hPa | 0 mm | - | - | - |
| 1777982440 | 11.67° C | 68% | 1004.3 hPa | 0 mm | - | - | - |
| 1777981544 | 11.67° C | 74% | 1003.5 hPa | 0 mm | - | - | - |
| 1777980637 | 11.67° C | 76% | 1002.9 hPa | 0 mm | - | - | - |
| 1777979745 | 12.22° C | 74% | 1002.9 hPa | 0 mm | - | - | - |
| 1777978837 | 12.22° C | 74% | 1003.5 hPa | 0 mm | - | - | - |
| 1777977933 | 12.22° C | 76% | 1003.8 hPa | 0 mm | - | - | - |
| 1777977037 | 12.22° C | 78% | 1004 hPa | 0 mm | - | - | - |
| 1777976131 | 12.78° C | 79% | 1003 hPa | 0 mm | - | - | - |
| 1777975240 | 12.78° C | 78% | 1002.8 hPa | 0 mm | - | - | - |
| 1777974326 | 12.78° C | 81% | 1002.3 hPa | 0 mm | - | - | - |
| 1777973426 | 12.78° C | 83% | 1002.1 hPa | 0 mm | - | - | - |
| 1777972525 | 12.22° C | 82% | 1001.5 hPa | 0 mm | - | - | - |
| 1777971644 | 12.78° C | 86% | 1001.4 hPa | 0 mm | - | - | - |
| 1777970722 | 12.78° C | 91% | 1001.4 hPa | 0 mm | - | - | - |
| 1777969824 | 13.33° C | 93% | 1001.3 hPa | 0 mm | - | - | - |
| 1777968913 | 13.89° C | 94% | 1001.3 hPa | 0 mm | - | - | - |
| 1777968013 | 13.89° C | 94% | 1001.7 hPa | 0 mm | - | - | - |
| 1777967109 | 13.89° C | 93% | 1001.8 hPa | 0 mm | - | - | - |
| 1777966207 | 14.44° C | 92% | 1001.4 hPa | 0 mm | - | - | - |
* Rain since midnight (hover to see other rain measurements)
** Current wind speed in m/s (hover to see current wind gust speed)